Weather History for LEGR - June, 2013

Change the Weather History Date:

Friday, June 14, 2013

  Actual Average Record
Temperature  
Mean Temperature 78 °F -  
Max Temperature 98 °F 89 °F 101 °F (2014)
Min Temperature 58 °F 57 °F 50 °F (2015)
Cooling Degree Days 13    
Growing Degree Days 28 (Base 50)    
Moisture  
Dew Point 49 °F    
Average Humidity 35    
Maximum Humidity 72    
Minimum Humidity 11    
Precipitation  
Precipitation 0.00 in - - ()
Sea Level Pressure  
Sea Level Pressure 30.03 in    
Wind  
Wind Speed 3 mph ()    
Max Wind Speed 14 mph    
Max Gust Speed -    
Visibility 8.0 miles    
Events      
Averages and records for this station are not official NWS values.
T = Trace of Precipitation, MM = Missing Value Source: Averaged Metar Reports

Daily Weather History Graph

Daily Weather History Graph

Search for Another Location

Airport or City:

Trip Planner

Search our weather history database for the weather conditions in past years. The results will help you decide how hot, cold, wet, or windy it might be!

Date:

Astronomy

Jun. 14, 2013 Rise Set
Actual Time 6:54 AM CEST 9:36 PM CEST
Civil Twilight 6:23 AM CEST 10:07 PM CEST
Nautical Twilight 5:44 AM CEST 10:46 PM CEST
Astronomical Twilight 5:01 AM CEST 11:29 PM CEST
Moon 12:09 PM CEST (6/14) 12:41 AM CEST (6/14)
Length of Visible Light 15h 44m
Length of Day
14h 42m
Waxing Crescent, 28% of the Moon is Illuminated
Jun 14
Waxing Crescent
Jun 16
First Quarter
Jun 23
Full
Jun 30
Last Quarter
Jul 8
New

Hourly Weather History & Observations

Time (CEST) Temp. Dew Point Humidity Pressure Visibility Wind Dir Wind Speed Gust Speed Precip Events Conditions
2:00 AM 67 °F 49 °F 42% 30.03 in - Calm Calm - -  
6:00 AM 60.8 °F 50.0 °F 68% 30.06 in - Calm Calm - N/A   Clear
6:30 AM 59.0 °F 50.0 °F 72% 30.06 in - Variable 2.3 mph - N/A   Clear
7:00 AM 59.0 °F 50.0 °F 72% 30.06 in - Calm Calm - N/A   Clear
7:30 AM 60.8 °F 50.0 °F 68% 30.06 in - Calm Calm - N/A   Clear
8:00 AM 63 °F 51 °F 55% 30.05 in 9 mi Calm Calm - -  
8:00 AM 62.6 °F 51.8 °F 68% 30.09 in - Calm Calm - N/A   Clear
8:30 AM 64.4 °F 53.6 °F 68% 30.09 in - Variable 1.2 mph - N/A   Clear
9:00 AM 68.0 °F 53.6 °F 60% 30.09 in - Calm Calm - N/A   Clear
9:30 AM 73.4 °F 53.6 °F 50% 30.09 in - Calm Calm - N/A   Clear
10:00 AM 75.2 °F 53.6 °F 47% 30.09 in - Calm Calm - N/A   Clear
10:30 AM 77.0 °F 53.6 °F 44% 30.09 in - Variable 1.2 mph - N/A   Clear
11:30 AM 82.4 °F 50.0 °F 32% 30.06 in - Variable 1.2 mph - N/A   Clear
12:00 PM 84.2 °F 51.8 °F 33% 30.06 in - Variable 1.2 mph - N/A   Clear
12:30 PM 86.0 °F 51.8 °F 31% 30.06 in - North 4.6 mph - N/A   Clear
1:00 PM 87.8 °F 50.0 °F 27% 30.06 in - Variable 2.3 mph - N/A   Clear
1:30 PM 89.6 °F 51.8 °F 27% 30.04 in - NW 4.6 mph - N/A   Clear
2:00 PM 91 °F 50 °F 15% 29.90 in 19 mi North 2.3 mph - -  
2:00 PM 91.4 °F 50.0 °F 24% 30.04 in - Variable 3.5 mph - N/A   Clear
2:30 PM 93.2 °F 50.0 °F 23% 30.04 in 6.2 mi Variable 2.3 mph - N/A   Partly Cloudy
3:00 PM 95.0 °F 50.0 °F 22% 30.01 in 6.2 mi Variable 4.6 mph - N/A   Partly Cloudy
3:30 PM 95.0 °F 50.0 °F 22% 30.01 in 6.2 mi Variable 5.8 mph - N/A   Partly Cloudy
4:00 PM 95.0 °F 48.2 °F 20% 30.01 in 6.2 mi West 6.9 mph - N/A   Partly Cloudy
4:30 PM 96.8 °F 50.0 °F 20% 30.01 in 6.2 mi NW 6.9 mph - N/A   Partly Cloudy
5:00 PM 96.8 °F 48.2 °F 19% 30.01 in 6.2 mi West 9.2 mph - N/A   Partly Cloudy
5:30 PM 96.8 °F 46.4 °F 18% 29.98 in 6.2 mi Variable 6.9 mph - N/A   Partly Cloudy
6:00 PM 96.8 °F 46.4 °F 18% 29.98 in 6.2 mi WNW 10.4 mph - N/A   Partly Cloudy
6:30 PM 96.8 °F 42.8 °F 16% 29.98 in 6.2 mi West 10.4 mph - N/A   Partly Cloudy
7:00 PM 95.0 °F 44.6 °F 18% 29.98 in 6.2 mi WNW 12.7 mph - N/A   Partly Cloudy
7:30 PM 95.0 °F 46.4 °F 19% 29.98 in 6.2 mi West 12.7 mph - N/A   Partly Cloudy
8:00 PM 92 °F 44 °F 11% 29.86 in 16 mi West 13.8 mph - -  
8:00 PM 93.2 °F 44.6 °F 19% 30.01 in - West 13.8 mph - N/A   Clear
8:30 PM 91.4 °F 46.4 °F 21% 30.01 in - West 10.4 mph - N/A   Clear
9:00 PM 87.8 °F 46.4 °F 24% 30.01 in - West 9.2 mph - N/A   Clear
9:30 PM 86.0 °F 48.2 °F 27% 30.01 in - WSW 5.8 mph - N/A   Clear
10:00 PM 82.4 °F 48.2 °F 30% 30.04 in - SSW 4.6 mph - N/A   Clear
10:30 PM 78.8 °F 48.2 °F 34% 30.04 in - South 8.1 mph - N/A   Clear
11:00 PM 78.8 °F 50.0 °F 36% 30.06 in - South 10.4 mph - N/A   Clear